Dewpoint
58 43 46 45 43 44 37 37 30 25 28 19 18 21 13 20 20 20 16 20 18 21 23 24 23 23 23 17 19 14 16 16 17 19 30 43 54 58 63 60 61 63 66 65 69 71 71 72 73 73 72 72 72 72 72 72 71 71 71 71 70 70 70 69 69 68 68 68 68 69 69 69 69 69 69 69 69 69 70 70 70 70 70 70 70 70 69 67 66 66 65 64 62 62 62 63 63
44 44 45 44 45 42 35 31 27 15 22 15 16 12 16 18 23 17 15 17 20 21 24 24 23 23 24 24 21 20 16 18 20 22 31 40 48 52 60 63 60 62 65 65 68 68 70 72 72 72 72 72 72 72 72 72 71 71 71 71 70 70 70 69 69 68 68 68 68 68 69 68 68 69 68 68 68 68 70 70 70 70 70 70 70 70 69 67 66 66 65 64 63 61 61 62 63
42 43 39 43 39 39 35 28 25 18 18 9 13 15 17 17 16 17 18 20 21 23 24 24 25 23 21 22 20 17 17 21 21 26 32 42 41 50 57 60 63 64 64 66 65 67 69 71 71 72 72 73 72 72 72 72 72 71 71 71 70 70 70 69 69 68 68 68 68 68 67 68 68 68 68 68 68 69 69 69 70 70 69 69 69 69 69 67 67 66 66 64 62 61 61 62 63
49 48 39 38 38 31 28 22 24 15 18 12 11 16 19 17 18 18 20 21 22 24 23 21 22 23 23 16 15 19 19 22 28 31 31 41 52 53 56 59 63 61 65 66 65 67 68 70 71 73 73 73 73 72 72 71 71 71 71 71 70 70 70 69 69 68 68 67 67 67 67 68 68 68 68 69 69 69 68 69 70 70 69 68 68 68 68 68 66 66 65 63 61 60 61 62 62
50 50 41 40 41 31 31 27 15 14 8 12 11 15 16 18 18 20 21 23 23 23 22 19 20 21 22 21 22 21 23 27 32 39 44 57 59 58 60 63 63 61 65 65 65 65 69 70 71 72 73 73 73 72 72 72 71 71 71 71 71 70 70 69 69 69 68 67 67 67 67 68 68 68 69 69 68 68 68 69 70 69 68 67 67 66 66 66 66 65 64 62 61 59 59 61 62
45 43 46 40 35 30 23 15 16 16 18 16 8 12 14 15 18 20 20 22 21 21 21 22 20 18 20 21 24 26 34 26 32 52 55 53 60 62 62 65 62 58 63 65 64 64 71 69 72 72 73 73 73 73 72 72 72 71 71 71 71 70 70 70 69 69 68 67 67 67 67 68 68 69 69 69 69 68 68 69 69 69 68 67 66 66 67 66 66 66 63 62 61 59 58 59 61
39 38 36 35 34 36 30 18 12 11 17 17 12 12 14 17 18 19 17 17 21 18 22 20 21 17 16 20 26 35 40 40 37 52 57 60 62 64 64 62 63 60 62 64 65 65 72 69 72 73 73 73 72 72 72 72 71 71 71 71 71 71 70 70 70 69 68 67 67 67 67 68 68 68 69 68 68 68 68 69 69 69 67 67 66 67 67 67 66 65 63 63 62 60 58 59 61
45 44 35 33 30 25 22 17 17 12 13 20 18 15 17 19 20 20 17 19 12 14 15 18 20 19 17 21 22 35 41 51 54 53 56 60 63 64 64 62 61 60 61 65 65 70 69 69 71 72 73 73 72 72 72 72 71 71 71 71 71 71 70 70 69 69 68 68 67 67 68 68 68 69 69 68 68 68 68 69 69 68 67 67 66 66 66 67 66 65 64 63 61 60 58 58 60
37 34 40 38 24 28 18 16 18 16 15 17 16 24 32 23 22 18 13 14 13 14 15 15 17 16 14 19 25 33 36 45 52 56 57 60 62 63 63 64 63 65 64 63 65 68 71 67 70 71 72 73 72 72 72 72 71 71 71 71 71 71 70 70 69 70 69 68 67 67 68 68 69 69 69 68 68 68 68 69 69 68 67 66 66 66 66 66 66 65 64 63 61 60 58 58 58
34 34 25 31 29 21 19 19 13 15 15 18 16 17 19 19 18 20 15 15 15 16 17 19 16 11 13 18 24 26 35 44 47 53 57 59 61 63 63 64 64 65 64 65 65 64 69 68 67 69 71 72 73 72 72 72 71 71 71 71 71 71 70 70 69 69 70 69 68 68 68 69 70 69 69 69 69 68 69 69 68 68 67 66 65 64 65 66 65 64 64 63 61 59 58 58 58
31 27 36 30 21 20 21 13 20 19 18 16 18 20 20 19 19 16 16 16 17 16 18 20 15 13 14 19 24 32 37 41 44 50 55 58 60 60 61 64 64 65 64 65 66 64 68 70 66 66 68 70 71 72 72 71 71 71 70 70 70 71 70 70 69 69 70 69 69 69 69 69 70 69 69 69 69 69 68 68 68 67 66 65 65 66 66 66 64 64 63 62 60 59 58 58 58
27 26 33 27 20 17 14 16 19 18 18 17 16 18 19 19 19 16 17 16 17 17 18 19 18 17 15 16 26 29 31 37 43 49 54 57 57 60 62 63 64 64 65 65 66 66 68 68 70 68 65 66 68 70 71 71 71 71 71 70 70 70 70 70 70 69 70 70 69 69 69 69 70 69 69 69 68 68 68 68 68 67 66 65 66 65 65 64 64 64 63 61 60 59 58 57 57
31 32 21 20 19 15 22 18 17 20 21 16 17 19 20 19 17 17 18 18 18 18 19 20 20 19 16 15 22 25 28 32 40 45 53 54 56 59 61 62 63 64 65 66 66 66 68 67 67 69 69 64 65 67 68 69 70 71 71 71 70 70 70 70 69 70 70 69 69 69 70 70 70 69 68 68 68 68 67 67 67 66 66 66 66 66 65 65 64 63 62 61 60 59 58 56 55
39 33 29 24 24 16 15 18 21 19 16 18 18 19 19 18 18 19 18 18 18 18 21 22 21 20 18 18 22 21 28 32 37 41 50 52 52 56 58 59 63 62 64 64 64 64 66 67 67 68 70 70 69 68 66 67 69 70 70 70 70 70 70 70 71 71 70 71 70 69 69 68 69 70 69 69 68 68 68 67 67 67 66 66 65 65 65 64 64 63 62 61 60 59 58 56 55
29 30 20 29 16 16 22 20 17 16 17 19 20 19 18 21 20 20 19 18 19 21 22 22 24 21 16 16 18 31 30 31 35 38 44 48 47 51 53 52 53 56 56 57 59 61 62 64 66 67 68 68 67 68 68 71 65 68 69 69 69 69 70 70 70 69 69 68 68 67 66 66 67 67 68 68 68 67 67 67 68 67 66 66 66 65 65 65 63 63 62 61 60 59 57 55 53
38 30 22 22 14 12 22 23 20 17 18 19 20 20 19 20 21 20 22 21 21 26 24 20 23 21 22 23 28 30 29 31 33 37 38 46 49 45 46 46 46 48 50 50 50 56 60 62 63 65 67 67 68 67 67 68 66 65 67 68 67 68 68 68 68 67 66 64 65 64 64 66 64 67 62 67 66 66 65 66 67 67 66 66 66 65 65 64 63 63 62 61 60 58 56 53 51
36 36 14 16 15 13 20 14 18 14 20 22 20 19 17 19 22 22 23 23 21 21 21 23 23 25 26 28 29 30 30 32 36 35 38 37 40 40 42 43 44 44 46 47 48 48 51 57 59 61 64 65 67 68 67 68 72 64 65 65 64 66 66 67 67 63 60 60 61 60 62 70 69 68 68 67 62 69 62 61 66 67 67 66 67 66 65 64 63 63 61 61 59 57 54 54 52
34 26 17 13 15 9 19 15 14 24 20 20 20 21 21 19 22 23 23 22 21 21 21 24 26 27 28 29 30 30 31 32 32 32 34 37 37 36 38 39 39 41 45 46 47 46 48 50 54 58 62 64 65 67 68 68 71 68 69 69 69 67 64 63 67 70 67 69 63 67 68 66 66 66 67 66 67 67 65 61 62 66 67 66 66 66 65 64 64 63 62 60 59 57 57 54 51
31 15 13 13 13 23 21 20 20 20 21 21 23 23 22 22 22 23 20 20 20 20 21 22 25 27 28 29 29 29 30 31 32 32 33 35 35 33 35 40 40 40 44 46 47 47 49 50 51 49 55 60 63 66 68 67 67 67 68 68 68 65 67 69 68 68 68 68 68 68 65 65 64 64 68 67 67 63 67 59 61 64 65 65 65 66 65 64 64 63 62 60 59 59 60 57 52
24 28 19 19 24 22 23 21 22 24 23 21 22 23 22 23 22 24 20 19 20 19 19 20 20 26 27 28 29 30 30 31 34 34 34 35 36 36 36 37 38 43 44 46 48 49 50 52 53 53 52 56 61 64 67 66 66 66 66 68 68 67 67 68 68 68 67 67 67 67 66 65 65 64 62 61 65 67 63 59 60 62 63 63 62 64 64 65 64 63 62 61 59 59 57 54 50
29 26 20 21 16 19 22 23 23 22 23 24 22 24 21 23 24 22 20 19 18 19 24 24 24 26 27 28 29 30 30 30 32 33 34 35 36 37 37 38 40 42 46 47 49 48 51 52 54 54 55 54 59 63 65 65 65 65 65 66 65 66 68 67 67 67 67 68 68 67 67 66 66 65 66 66 66 64 65 66 66 65 64 65 61 64 63 64 62 61 60 59 58 58 57 55 54
30 20 20 17 17 21 22 24 25 24 25 23 23 19 20 24 23 22 21 19 19 24 26 27 27 27 27 28 29 30 30 31 31 32 33 35 37 37 38 40 41 43 46 47 49 49 53 53 54 54 54 55 55 63 65 65 65 65 65 65 64 65 67 67 68 68 67 66 67 66 65 66 64 64 64 66 64 64 63 63 64 65 65 64 63 64 64 63 63 62 61 61 57 58 57 55 54
23 21 22 23 24 24 23 24 27 25 24 22 21 22 22 20 20 20 21 20 25 28 28 28 28 28 28 29 30 29 32 32 31 33 33 35 36 38 40 40 40 42 47 47 49 50 53 54 54 55 56 56 55 60 64 64 65 65 66 67 66 65 65 65 67 68 67 67 67 67 67 65 65 65 64 64 66 65 65 64 62 62 63 63 63 63 63 63 63 61 61 60 57 57 56 55 53
22 19 23 25 25 22 23 25 27 25 23 22 22 22 20 20 19 22 20 26 27 28 28 28 28 28 28 28 29 30 31 32 32 33 34 35 37 38 42 40 41 45 47 48 50 52 54 53 52 57 55 54 55 60 63 63 63 64 66 64 64 64 63 64 65 66 67 67 65 66 65 68 66 66 65 65 65 64 64 64 63 63 63 63 63 63 63 64 66 64 62 59 58 58 57 55 54
21 20 21 26 24 23 24 24 25 24 23 23 23 21 20 20 20 21 20 26 27 27 28 28 28 28 28 28 28 30 31 33 32 33 34 37 38 39 42 42 42 45 46 49 51 52 52 51 52 57 54 51 56 59 61 61 63 63 65 66 65 62 64 64 63 63 64 64 64 65 65 64 66 66 66 66 67 66 66 65 65 64 62 62 63 63 63 64 65 63 61 60 60 58 57 56 55
22 22 22 23 22 22 23 23 23 24 23 23 22 21 20 20 21 20 23 26 27 27 27 28 27 27 27 28 28 29 29 31 34 33 33 37 38 37 40 42 43 43 46 49 51 51 50 50 55 57 57 60 58 59 61 64 65 64 63 62 62 62 62 61 61 61 61 62 62 63 64 64 64 67 66 66 66 64 64 64 64 64 64 64 63 62 61 61 61 60 62 61 59 58 56 55 54
23 22 22 22 22 22 22 21 21 21 22 21 20 19 19 21 21 19 25 27 27 27 26 27 27 27 27 27 28 28 30 31 31 33 34 36 36 37 39 41 43 44 47 48 48 49 48 51 56 58 59 61 62 62 61 60 60 60 60 59 59 60 60 59 59 59 59 59 60 61 62 62 63 64 66 64 63 63 63 64 64 64 63 62 61 61 61 60 60 59 59 58 57 57 54 55 55
22 22 22 22 22 22 22 21 21 21 21 21 20 19 20 21 22 20 24 26 26 25 25 26 27 27 26 27 28 31 29 31 32 34 34 34 36 37 38 40 42 44 47 47 47 48 49 51 55 57 58 59 59 59 58 57 57 57 57 56 56 57 57 57 57 57 57 57 58 59 60 61 61 62 63 62 62 62 61 61 60 60 60 60 59 59 59 58 58 57 57 57 57 57 55 54 56
22 22 21 21 22 21 22 21 22 23 21 21 21 20 19 20 20 22 25 26 26 25 25 25 26 27 29 27 28 29 30 31 32 33 34 34 35 36 37 40 41 43 45 46 46 47 48 50 54 54 55 56 55 55 54 53 52 52 53 52 52 55 54 53 53 53 53 54 55 57 58 59 59 61 62 61 61 61 60 59 59 58 58 58 58 58 59 59 58 58 57 58 58 57 56 55 56
23 22 22 22 21 21 22 22 22 21 21 21 21 19 18 19 20 23 25 25 25 24 24 25 25 26 27 27 28 29 30 31 32 35 34 35 35 35 37 39 41 42 43 45 46 47 48 50 51 52 51 49 49 48 48 48 47 48 48 48 48 48 48 48 49 50 50 50 52 53 55 56 57 57 58 59 59 58 57 57 57 57 57 57 57 57 57 57 57 56 56 57 54 55 55 53 54
23 22 23 23 22 20 23 23 22 21 21 21 21 22 17 21 20 24 25 25 24 23 23 24 25 25 26 29 28 29 29 31 31 31 34 35 33 36 37 40 40 40 43 45 45 46 47 48 49 48 48 48 47 46 45 45 45 45 45 45 45 46 45 45 45 47 47 47 49 50 51 53 55 56 57 56 56 56 55 55 55 55 56 57 56 56 56 56 55 55 55 56 55 54 53 51 51
23 22 22 26 24 21 23 24 23 22 21 21 21 23 20 19 20 23 25 25 23 22 22 24 25 25 26 27 26 26 28 30 31 31 32 33 34 35 37 37 39 39 42 43 45 46 47 47 48 47 45 45 45 44 43 42 41 42 42 43 42 44 43 43 42 43 44 45 46 47 48 49 51 53 55 55 55 55 54 54 54 54 54 54 55 54 55 53 52 52 52 53 54 52 52 51 49
23 23 27 25 27 24 22 23 23 24 20 22 21 20 21 19 20 20 23 24 23 23 22 24 24 25 25 25 26 26 28 30 32 30 32 33 34 33 35 35 37 39 41 42 43 46 46 46 46 45 44 43 42 41 42 41 40 40 39 39 39 40 40 40 40 41 42 43 43 44 45 46 48 49 50 52 52 52 52 52 52 51 51 51 52 52 52 53 52 51 49 50 51 48 47 46 46
25 27 24 27 23 23 21 23 23 28 22 20 21 21 21 20 21 21 22 23 23 21 21 23 25 25 25 26 26 26 26 29 29 30 31 32 33 33 35 38 37 38 40 40 42 44 45 45 45 45 44 42 41 41 40 40 39 39 39 38 38 38 38 38 38 39 40 41 42 42 44 43 45 46 47 48 48 48 49 49 48 48 49 48 48 48 47 47 48 46 43 42 43 42 40 40 41
25 26 28 25 23 23 22 22 23 23 22 21 21 20 21 22 21 22 21 21 21 21 20 22 24 25 26 26 25 25 26 29 28 29 32 32 34 34 35 36 38 37 38 39 41 43 44 44 44 44 43 42 42 41 41 40 39 38 38 38 37 37 37 37 37 37 38 39 40 41 42 41 42 44 44 45 45 45 45 45 45 45 45 45 45 45 46 46 46 46 44 42 40 40 40 41 41
24 24 24 25 25 24 23 23 24 24 23 23 23 23 23 24 23 22 22 22 22 21 21 22 24 24 25 25 26 26 28 26 30 31 34 34 34 35 35 35 37 37 37 39 40 42 43 43 43 42 42 42 43 42 42 41 40 39 38 37 36 35 35 35 35 35 36 37 39 39 40 40 41 41 42 42 42 43 43 43 43 43 43 43 43 43 43 44 45 45 44 43 42 41 40 40 41
25 27 27 25 25 25 25 24 26 24 23 23 24 24 25 25 25 23 23 23 23 21 21 24 25 25 26 25 27 28 29 27 35 34 35 34 36 35 36 36 36 36 36 38 39 40 41 43 43 42 42 42 43 43 42 41 40 38 37 36 34 34 34 34 34 35 34 35 36 36 38 38 39 40 40 41 40 40 40 41 41 41 41 41 41 41 42 43 43 44 42 42 41 40 39 40 40
24 26 27 25 28 25 26 25 25 25 24 25 26 25 26 26 26 26 25 22 22 22 22 24 25 25 27 28 28 29 28 33 33 32 32 34 34 37 37 36 37 37 35 37 39 39 40 41 42 41 40 40 40 40 40 39 39 38 36 35 33 33 33 32 32 32 33 34 34 34 35 35 37 37 38 39 39 38 38 38 39 39 38 38 38 39 39 40 41 41 42 40 40 38 37 38 39
27 26 27 27 27 28 27 25 25 24 24 24 25 25 25 25 25 26 26 23 23 23 24 25 25 27 27 28 28 29 29 31 30 30 32 33 36 36 36 36 35 35 36 36 38 39 40 40 40 40 40 40 39 39 39 37 37 36 35 33 32 31 31 32 32 32 32 31 31 32 32 33 34 34 35 36 37 37 36 36 37 36 36 36 36 36 37 38 38 38 39 39 38 38 35 36 36
26 27 27 27 29 29 28 25 25 24 24 26 26 25 26 27 28 28 29 25 27 31 28 31 27 27 27 27 28 28 28 30 29 28 30 31 35 35 35 35 35 36 35 35 35 36 37 38 38 38 38 38 37 36 36 35 34 34 34 32 32 31 30 30 30 29 29 29 29 30 30 31 31 31 32 33 34 34 34 34 34 34 33 33 33 33 34 34 35 36 36 35 35 34 32 29 31
30 30 29 27 28 28 27 25 26 25 25 27 25 26 27 28 28 28 28 28 27 28 28 28 31 33 30 31 31 29 27 29 29 29 30 30 31 33 34 34 35 35 35 35 34 33 35 37 37 37 36 35 35 34 34 34 33 33 32 32 31 30 29 27 26 25 25 26 26 27 26 27 28 28 28 29 29 30 30 30 29 28 28 28 26 24 25 28 30 30 32 32 31 25 31 30 25
28 31 29 27 27 26 26 26 25 26 29 27 26 27 28 29 30 29 26 27 26 27 27 27 27 30 31 30 30 30 31 30 29 28 30 31 31 32 33 34 34 34 33 32 32 33 35 36 36 36 36 35 34 34 34 33 33 32 31 30 28 26 24 23 22 22 21 21 22 24 25 25 25 26 25 26 26 27 27 27 27 24 24 24 24 23 21 23 27 27 27 28 29 29 22 24 21
30 28 29 27 26 27 27 27 29 29 28 28 28 27 26 27 25 23 25 24 24 26 27 27 27 27 29 29 28 29 29 29 30 30 30 30 31 32 33 33 33 32 31 31 31 32 34 35 35 35 35 35 36 35 35 33 33 32 31 29 27 24 21 21 20 19 18 18 20 20 22 23 23 24 24 24 25 25 26 26 26 25 23 23 24 23 23 23 25 28 27 25 24 27 25 19 20
29 37 32 29 27 30 30 30 30 30 33 32 27 27 27 27 28 29 24 24 24 25 26 26 26 27 27 27 27 28 28 28 30 29 30 31 31 32 31 32 30 29 30 30 31 32 33 33 34 33 33 33 33 32 31 31 30 30 29 27 24 22 21 20 19 18 19 18 17 17 18 19 22 22 22 23 23 23 23 24 24 23 23 22 22 23 24 25 26 26 26 26 23 21 24 20 20
33 34 34 32 29 31 32 32 31 31 29 28 28 31 26 26 28 28 25 26 26 26 26 26 26 26 26 27 27 28 27 28 29 29 29 30 30 30 29 29 28 28 30 31 30 30 31 31 31 31 30 30 30 29 29 29 29 28 25 23 22 21 19 19 19 19 18 18 17 16 15 14 17 20 21 22 23 22 22 23 22 21 21 20 19 23 23 24 26 25 24 24 24 21 21 23 21
37 35 33 33 33 32 32 31 31 31 28 27 29 29 27 26 29 27 26 26 25 25 24 26 26 26 26 26 27 27 26 28 29 28 28 29 30 28 28 27 27 29 28 29 29 30 30 30 28 28 28 27 27 27 28 27 27 25 24 24 23 19 18 18 19 19 19 19 18 16 15 14 13 14 18 22 21 22 23 22 23 21 20 20 20 21 23 22 23 24 24 24 26 23 22 21 21
34 33 33 32 32 32 30 30 29 29 26 27 29 29 28 26 29 27 28 29 25 24 24 25 26 26 26 26 27 27 26 28 28 27 28 28 28 27 26 26 26 27 28 28 29 29 29 29 27 26 25 24 24 25 26 27 26 25 24 24 23 22 22 21 18 18 17 17 15 15 14 16 15 13 15 18 22 22 21 22 22 22 22 20 20 21 21 21 20 22 22 22 24 25 23 22 22
34 33 32 31 30 28 28 27 29 27 27 29 29 29 28 26 27 29 26 24 24 23 23 25 25 25 26 26 26 25 26 27 27 26 27 26 25 26 26 25 25 26 26 27 29 29 28 27 25 24 24 24 24 25 26 26 26 26 25 25 24 22 21 21 19 19 18 17 14 13 12 13 13 16 15 18 21 22 20 21 21 20 20 21 20 21 22 22 19 20 21 20 22 23 24 21 22
33 31 30 29 28 26 25 26 24 25 26 24 24 29 28 27 27 24 23 23 23 24 24 24 25 25 26 26 26 25 27 28 26 27 27 26 26 25 25 24 25 25 26 27 27 28 27 25 24 23 23 23 23 24 26 26 26 25 25 25 24 23 23 23 21 20 19 16 14 13 12 11 12 16 15 18 22 21 19 20 20 20 19 21 22 22 23 23 21 20 23 23 22 22 22 23 21
30 30 29 28 28 26 25 25 25 25 26 23 22 28 26 26 23 27 26 23 24 25 27 27 25 25 26 26 26 25 28 27 27 27 27 27 27 26 25 24 24 25 25 25 25 26 25 24 23 23 23 23 23 23 23 24 24 24 24 24 24 23 24 22 21 19 19 18 19 16 13 12 14 17 18 19 20 21 21 22 23 23 22 22 23 24 24 24 23 20 22 22 22 21 24 24 23
29 33 31 30 29 28 26 25 24 25 24 21 25 25 24 24 22 23 23 23 23 24 26 29 29 27 27 26 27 27 27 27 27 27 28 27 26 26 25 24 24 24 23 24 24 25 24 23 23 22 22 22 23 23 24 24 24 24 24 24 23 23 22 21 21 22 20 20 19 18 16 15 15 15 17 21 22 22 21 21 22 22 23 22 21 22 23 20 22 17 17 20 17 20 22 20 22
31 33 34 30 30 32 27 26 23 24 22 22 24 23 23 22 23 25 24 24 23 24 25 26 26 26 28 26 26 27 26 26 27 27 27 26 26 25 25 24 24 23 22 23 23 24 26 24 22 22 22 22 23 23 23 23 23 22 24 23 23 22 21 21 21 21 20 21 20 19 18 17 17 18 20 20 21 22 22 21 21 21 20 20 19 19 19 19 22 18 17 19 19 21 20 20 19
31 31 29 30 32 30 29 27 26 25 24 23 25 22 24 23 22 23 23 23 22 24 24 24 25 26 27 26 26 26 26 27 27 28 27 26 25 25 25 23 23 22 22 24 23 24 25 24 22 21 21 23 22 22 23 23 23 23 23 23 23 22 20 20 20 22 21 21 20 20 19 19 19 19 22 22 21 21 21 20 18 19 20 20 20 19 20 20 21 18 18 19 18 19 19 20 19
31 28 30 34 32 32 29 26 26 24 23 25 24 23 21 22 22 25 23 22 22 23 23 24 25 26 26 27 27 27 27 27 27 27 27 26 25 24 25 24 23 22 22 22 22 25 25 25 22 22 22 22 22 22 22 22 22 22 22 22 21 21 21 21 22 21 22 20 19 18 19 19 19 22 22 23 20 19 18 18 18 18 18 19 19 18 19 18 21 15 18 17 17 18 17 16 19
30 30 35 29 27 26 28 27 24 24 24 24 22 22 22 23 24 20 22 22 21 22 24 24 25 25 26 27 27 27 27 28 27 27 27 26 25 25 24 22 21 21 21 21 22 25 25 24 22 21 21 21 22 23 22 22 23 25 25 23 23 22 21 21 21 20 20 21 20 19 19 19 20 19 18 19 17 16 14 15 14 14 14 15 15 16 16 15 17 12 12 12 15 15 14 13 16
33 32 30 34 29 28 27 27 28 25 24 24 25 22 22 27 23 21 21 22 23 22 24 23 24 25 25 26 27 27 27 28 27 27 27 27 26 24 23 22 20 20 20 22 22 25 23 23 22 21 22 22 22 22 21 21 24 24 24 22 21 21 21 22 21 21 20 21 20 19 19 19 19 17 19 17 14 13 13 12 10 10 11 12 12 12 14 13 12 11 8 10 11 12 10 11 12
28 27 27 30 30 30 27 29 27 24 23 23 22 22 24 24 23 23 22 21 23 23 24 25 25 25 26 27 27 28 28 28 28 27 27 27 25 24 24 22 20 21 22 22 23 23 23 23 22 21 21 21 21 21 20 22 22 22 21 19 20 20 20 20 20 19 17 19 19 19 19 19 18 17 17 15 14 14 12 13 13 12 12 12 14 12 11 10 9 9 6 10 12 9 7 7 8
28 28 28 28 28 27 25 25 29 27 24 24 22 22 26 26 24 23 22 22 23 25 26 26 25 25 27 28 28 28 28 28 27 27 28 27 25 24 23 23 22 21 21 21 22 21 22 22 22 21 20 21 20 19 20 20 20 19 19 17 18 18 18 18 18 16 14 17 18 18 18 16 15 15 14 14 13 15 11 11 11 11 10 10 10 11 9 5 5 7 5 16 15 7 5 6 8